Regional Weather Roundup
Issued by NWS Jackson, KY

Home | Current Version | Previous Version | Text Only | Print | Product List | Glossary Off
Versions: 1 2 3 4 5 6 7 8 9 10 11 12 13 14 15 16 17 18 19 20 21 22 23 24 25

000
ASUS43 KJKL 171810
RWRJKL

EAST KENTUCKY HOURLY WEATHER ROUNDUP
NATIONAL WEATHER SERVICE JACKSON KY
100 PM EST SAT FEB 17 2018

NOTE: "FAIR" INDICATES FEW OR NO CLOUDS BELOW 12,000 FEET WITH
NO SIGNIFICANT WEATHER AND/OR OBSTRUCTIONS TO VISIBILITY.

* THESE REPORTS ARE NOT UNDER NWS QUALITY CONTROL AND MAY NOT
  REPORT WEATHER SUCH AS PRECIPITATION AND FOG.

KYZ079-080-083-085-087-088-110-112-115-119-120-171900
...EASTERN KENTUCKY...

CITY           SKY/WX    TMP DP  RH WIND       PRES   REMARKS
JACKSON        LGT RAIN  38  36  92 VRB3      30.09R FOG
6HR MIN TEMP:  34; 6HR MAX TEMP:  39; 6HR PCP:  0.10;

LONDON         HVY RAIN  40  38  93 N6        30.06S FOG
6HR MIN TEMP:  38; 6HR MAX TEMP:  42; 6HR PCP:  0.32;

SOMERSET*      RAIN      39  39 100 N6        30.07F WCI  35
WILLIAMSBURG*  CLOUDY    41  41 100 NW8       30.08R
MIDDLESBORO*   LGT SNOW  44  44 100 W3G9      30.04R VSB 1
6HR MIN TEMP:  41; 6HR MAX TEMP:  44; 6HR PCP:  0.38;

HARLAN APT*    CLOUDY    45  43  93 W5        30.02R
PIKE CO APT*   RAIN      40  40 100 N8        30.04S WCI  34
BIG SANDY APT* RAIN      39  39 100 NE6       30.06F WCI  35
6HR MIN TEMP:  35; 6HR MAX TEMP:  41;

MOREHEAD APT*  LGT RAIN  37  34  87 S5        30.08F WCI  34
ASHLAND*       LGT RAIN  37  33  85 SE8       30.09F WCI  31
$$

KYZ035-036-041-042-044-050-067-078-099-171900
...CENTRAL KENTUCKY...

CITY           SKY/WX    TMP DP  RH WIND       PRES   REMARKS
MT STERLING*   LGT RAIN  36  34  93 SE7       30.05F WCI  30
FLEMING/MASON* SNOW      32  32 100 NE3       30.08F VSB 1/2
DANVILLE*      MIX PCPN  36  34  93 SE3       30.05F
LEXINGTON      HVY RAIN  36  33  89 NE5       30.03F FOG     WCI  32
6HR MIN TEMP:  35; 6HR MAX TEMP:  38; 6HR PCP:  0.15;

FRANKFORT      LGT SNOW  34  30  85 NE3       30.04F FOG
6HR MIN TEMP:  34; 6HR MAX TEMP:  37; 6HR PCP:  0.14;

LOUISVILLE     LGT SNOW  33  32  96 NE3       30.06F FOG
6HR MIN TEMP:  33; 6HR MAX TEMP:  39; 6HR PCP:  0.22;

LEBANON*       RAIN      36  36 100 E8        30.03F WCI  29
GLASGOW*       RAIN     N/A N/A N/A SE6       30.05F
BOWLING GREEN  RAIN      39  39 100 SE6       30.06F FOG     WCI  35
6HR MIN TEMP:  38; 6HR MAX TEMP:  40; 6HR PCP:  0.41;

$$

KYZ091>093-OHZ055-061-077-WVZ005-015-034-035-042-171900
...SOUTHERN OHIO/WEST VIRGINIA...

CITY           SKY/WX    TMP DP  RH WIND       PRES   REMARKS
COVINGTON      SNOW      33  33 100 CALM      30.07F VSB 1/2
COLUMBUS       CLOUDY    34  25  69 SE8       30.08F WCI  27
DAYTON         FLURRIES  34  29  82 S8        30.07F WCI  27
WILMINGTON     LGT SNOW  32  32 100 S6        30.06F VSB 3/4 WCI  26
HUNTINGTON     HVY RAIN  36  33  89 N6        30.10F FOG     WCI  31
CHARLESTON     LGT RAIN  41  37  86 NW5       30.09R FOG
BECKLEY        LGT RAIN  37  35  92 SE6       30.05S FOG     WCI  32
BLUEFIELD      CLOUDY    36  33  89 VRB7G18   30.04F FOG     WCI  30
LOGAN CO APT*  LGT RAIN  43  41  93 CALM      30.04F
$$

VAZ002-007-008-TNZ017-027-036-066-071-171900
...SOUTHWEST VIRGINIA/EAST TENNESSEE...

CITY           SKY/WX    TMP DP  RH WIND       PRES   REMARKS
WISE*          RAIN      41  41 100 CALM      29.95F
JONESVILLE*    LGT RAIN  45  45 100 CALM      29.97F
ABINGDON*      CLOUDY    47  46  95 E13       29.98F
BRISTOL        CLOUDY    51  45  79 SE8       29.95F
MORRISTOWN*    CLOUDY    48  46  93 SE3       29.93F
SEVIERVILLE*   MOCLDY    50  46  87 W3        29.96F
KNOXVILLE      LGT RAIN  47  44  90 W10       29.99F
LAFOLLETTE*    FOG       43  41  93 CALM      30.07R VSB 1
OAK RIDGE      LGT RAIN  44  44 100 VRB3      30.03R FOG
CROSSVILLE     HVY RAIN  48  46  93 N13       30.04R FOG
NASHVILLE      RAIN      42  41  96 SE8       30.09F VSB 1
$$

...KEY TO REMARKS...
VSB - VISIBILITY IN MILES
WCI - WIND CHILL INDEX
HX  - HEAT INDEX

$$




USA.gov is the U.S. government's official web portal to all federal, state and local government web resources and services.